TimeEEST,TemperatureF,Dew PointF,Humidity,Sea Level PressureIn,VisibilityMPH,Wind Direction,Wind SpeedMPH,Gust SpeedMPH,PrecipitationIn,Events,Conditions,WindDirDegrees,DateUTC
12:20 AM,51.8,39.2,62,30.06,-9999.0,NNE,4.6,-,N/A,,Clear,30,2012-10-14 21:20:00
12:50 AM,51.8,39.2,62,30.09,-9999.0,NNE,3.5,-,N/A,,Clear,20,2012-10-14 21:50:00
1:20 AM,53.6,39.2,58,30.09,-9999.0,NNE,3.5,-,N/A,,Clear,20,2012-10-14 22:20:00
1:50 AM,50.0,39.2,66,30.09,-9999.0,North,3.5,-,N/A,,Clear,360,2012-10-14 22:50:00
2:20 AM,48.2,39.2,71,30.09,-9999.0,North,3.5,-,N/A,,Clear,10,2012-10-14 23:20:00
3:20 AM,50.0,39.2,66,30.09,-9999.0,Variable,2.3,-,N/A,,Clear,0,2012-10-15 00:20:00
3:50 AM,48.2,39.2,71,30.09,-9999.0,Calm,Calm,-,N/A,,Clear,0,2012-10-15 00:50:00
4:20 AM,48.2,39.2,71,30.09,-9999.0,Variable,2.3,-,N/A,,Clear,0,2012-10-15 01:20:00
4:50 AM,46.4,37.4,71,30.09,-9999.0,North,3.5,-,N/A,,Clear,360,2012-10-15 01:50:00
5:20 AM,48.2,37.4,66,30.09,-9999.0,NNE,2.3,-,N/A,,Clear,30,2012-10-15 02:20:00
5:50 AM,46.4,39.2,76,30.09,-9999.0,Variable,1.2,-,N/A,,Clear,0,2012-10-15 02:50:00
6:20 AM,44.6,39.2,81,30.09,-9999.0,NNW,2.3,-,N/A,,Clear,330,2012-10-15 03:20:00
6:50 AM,46.4,39.2,76,30.12,-9999.0,Calm,Calm,-,N/A,,Clear,0,2012-10-15 03:50:00
7:20 AM,48.2,39.2,71,30.12,-9999.0,Variable,2.3,-,N/A,,Clear,0,2012-10-15 04:20:00
7:50 AM,51.8,39.2,62,30.12,-9999.0,Variable,2.3,-,N/A,,Clear,0,2012-10-15 04:50:00
8:20 AM,55.4,39.2,54,30.15,-9999.0,Variable,1.2,-,N/A,,Clear,0,2012-10-15 05:20:00
8:50 AM,59.0,39.2,48,30.15,-9999.0,Variable,1.2,-,N/A,,Clear,0,2012-10-15 05:50:00
9:20 AM,62.6,39.2,42,30.15,-9999.0,Variable,2.3,-,N/A,,Clear,0,2012-10-15 06:20:00
9:50 AM,66.2,37.4,35,30.15,-9999.0,Variable,2.3,-,N/A,,Clear,0,2012-10-15 06:50:00
10:20 AM,66.2,37.4,35,30.12,-9999.0,West,3.5,-,N/A,,Clear,260,2012-10-15 07:20:00
10:50 AM,69.8,35.6,28,30.12,-9999.0,Variable,3.5,-,N/A,,Clear,0,2012-10-15 07:50:00
11:20 AM,73.4,35.6,25,30.12,-9999.0,WSW,3.5,-,N/A,,Clear,240,2012-10-15 08:20:00
11:50 AM,75.2,33.8,22,30.12,-9999.0,West,3.5,-,N/A,,Clear,260,2012-10-15 08:50:00
12:20 PM,77.0,33.8,21,30.09,-9999.0,WSW,4.6,-,N/A,,Clear,240,2012-10-15 09:20:00
12:50 PM,78.8,30.2,17,30.09,-9999.0,Variable,4.6,-,N/A,,Clear,0,2012-10-15 09:50:00
1:20 PM,80.6,32.0,17,30.06,-9999.0,Variable,3.5,-,N/A,,Clear,0,2012-10-15 10:20:00
1:50 PM,82.4,32.0,16,30.06,-9999.0,SW,5.8,-,N/A,,Clear,230,2012-10-15 10:50:00
2:20 PM,82.4,28.4,14,30.06,-9999.0,WSW,4.6,-,N/A,,Clear,250,2012-10-15 11:20:00
2:50 PM,82.4,28.4,14,30.06,-9999.0,South,5.8,-,N/A,,Clear,190,2012-10-15 11:50:00
3:20 PM,82.4,28.4,14,30.06,-9999.0,SW,4.6,-,N/A,,Clear,230,2012-10-15 12:20:00
3:50 PM,82.4,28.4,14,30.06,-9999.0,Variable,4.6,-,N/A,,Clear,0,2012-10-15 12:50:00
4:20 PM,82.4,26.6,13,30.06,-9999.0,WSW,5.8,-,N/A,,Clear,250,2012-10-15 13:20:00
4:50 PM,80.6,28.4,15,30.06,-9999.0,SW,5.8,-,N/A,,Clear,220,2012-10-15 13:50:00
5:20 PM,77.0,32.0,19,30.06,-9999.0,SSW,4.6,-,N/A,,Clear,200,2012-10-15 14:20:00
5:50 PM,75.2,32.0,21,30.06,-9999.0,South,3.5,-,N/A,,Clear,180,2012-10-15 14:50:00
6:20 PM,71.6,32.0,23,30.06,-9999.0,Calm,Calm,-,N/A,,Clear,0,2012-10-15 15:20:00
6:50 PM,64.4,37.4,37,30.06,-9999.0,Calm,Calm,-,N/A,,Clear,0,2012-10-15 15:50:00
7:20 PM,62.6,35.6,37,30.06,-9999.0,Calm,Calm,-,N/A,,Clear,0,2012-10-15 16:20:00
7:50 PM,60.8,35.6,39,30.09,-9999.0,NNE,3.5,-,N/A,,Clear,20,2012-10-15 16:50:00
8:20 PM,60.8,33.8,36,30.09,-9999.0,NNE,5.8,-,N/A,,Clear,30,2012-10-15 17:20:00
8:50 PM,59.0,33.8,39,30.09,-9999.0,ENE,5.8,-,N/A,,Clear,60,2012-10-15 17:50:00
9:20 PM,60.8,32.0,34,30.09,-9999.0,NE,5.8,-,N/A,,Clear,40,2012-10-15 18:20:00
9:50 PM,57.2,37.4,48,30.09,-9999.0,NE,6.9,-,N/A,,Clear,40,2012-10-15 18:50:00
10:20 PM,55.4,37.4,51,30.09,-9999.0,NNE,5.8,-,N/A,,Clear,30,2012-10-15 19:20:00
10:50 PM,55.4,37.4,51,30.09,-9999.0,NE,4.6,-,N/A,,Clear,40,2012-10-15 19:50:00
11:20 PM,55.4,37.4,51,30.12,-9999.0,NNE,4.6,-,N/A,,Clear,20,2012-10-15 20:20:00
11:50 PM,53.6,37.4,54,30.12,-9999.0,Calm,Calm,-,N/A,,Clear,0,2012-10-15 20:50:00